User: anonymous
Location: Blue Mountain Vista Observatory
(40.6992°N, 75.9422°W)
Time: 03:57:53
(UTC-04:00)
Language:

CZ-4C R/B - Orbit

View from above orbital plane
View from above orbital plane
View from above satellite
View from above satellite

Ground track
Ground track

The orbit data is extracted from the following two-line orbital elements,

1 36416U 10009D   14294.42395153 -.00000013  00000-0  70802-4 0  7705
2 36416 063.4493 342.2446 0292194 359.9436 000.1522 13.69426443231561
Epoch (UTC): 21 October 2014 10:10:29
Eccentricity: 0.0292194
inclination: 63.4493°
perigee height: 786 km
apogee height: 1217 km
right ascension of ascending node: 342.2446°
argument of perigee: 359.9436°
revolutions per day: 13.69426443
mean anomaly at epoch: 0.1522°
orbit number at epoch: 23156

The dashed part of the orbit path shows where the satellite is in the earth's shadow,  

DLR